| time (UTC) | temp F | wind direction | speed MPH | gust MPH | rain 1hr in | rain 24hr in | rain mn in | humidity % | barometer mb |
| 20260510015002 | 58 | 41 | 3.0 | 4.0 | 0.00 | 0.00 | 0.00 | 52 | 1010.7 |
| 20260510014502 | 58 | 337 | 2.0 | 6.0 | 0.00 | 0.00 | 0.00 | 52 | 1010.4 |
| 20260510014002 | 59 | 88 | 4.0 | 6.0 | 0.00 | 0.00 | 0.00 | 52 | 1010.3 |
| 20260510013502 | 60 | 331 | 3.0 | 4.0 | 0.00 | 0.00 | 0.00 | 52 | 1010.0 |
| 20260510013001 | 61 | 256 | 1.0 | 4.0 | 0.00 | 0.00 | 0.00 | 51 | 1010.3 |
| 20260510012502 | 64 | 37 | 3.0 | 5.0 | 0.00 | 0.00 | 0.00 | 54 | 1009.7 |
| 20260510012002 | 65 | 259 | 3.0 | 6.0 | 0.00 | 0.00 | 0.00 | 54 | 1009.3 |
| 20260510011501 | 65 | 262 | 2.0 | 6.0 | 0.00 | 0.00 | 0.00 | 53 | 1009.3 |
| 20260510011002 | 65 | 292 | 4.0 | 5.0 | 0.00 | 0.00 | 0.00 | 52 | 1009.2 |
| 20260510010502 | 66 | 295 | 3.0 | 7.0 | 0.00 | 0.00 | 0.00 | 51 | 1009.1 |
| 20260510010002 | 65 | 311 | 4.0 | 7.0 | 0.00 | 0.00 | 0.00 | 52 | 1008.8 |
| 20260510005502 | 66 | 269 | 2.0 | 6.0 | 0.00 | 0.00 | 0.00 | 52 | 1008.6 |
| 20260510004502 | 66 | 277 | 3.0 | 5.0 | 0.00 | 0.00 | 0.00 | 50 | 1008.7 |
| 20260510003502 | 67 | 296 | 2.0 | 10.0 | 0.00 | 0.00 | 0.00 | 49 | 1008.4 |
| 20260510003003 | 67 | 293 | 3.0 | 5.0 | 0.00 | 0.00 | 0.00 | 49 | 1008.1 |
| 20260510002502 | 67 | 287 | 2.0 | 9.0 | 0.00 | 0.00 | 0.00 | 48 | 1008.2 |
| 20260510002001 | 68 | 267 | 3.0 | 7.0 | 0.00 | 0.00 | 0.00 | 48 | 1008.3 |
| 20260510001502 | 68 | 326 | 7.0 | 10.0 | 0.00 | 0.00 | 0.00 | 46 | 1008.1 |
| 20260510000502 | 68 | 278 | 5.0 | 10.0 | 0.00 | 0.00 | 0.00 | 46 | 1008.1 |
| 20260510000002 | 68 | 207 | 6.0 | 10.0 | 0.00 | 0.00 | 0.00 | 46 | 1007.9 |
| 20260509235501 | 69 | 240 | 8.0 | 12.0 | 0.00 | 0.00 | 0.00 | 44 | 1007.9 |
| 20260509235003 | 70 | 307 | 8.0 | 13.0 | 0.00 | 0.00 | 0.00 | 44 | 1008.0 |
| 20260509234501 | 70 | 263 | 7.0 | 13.0 | 0.00 | 0.00 | 0.00 | 44 | 1007.9 |
| 20260509234002 | 70 | 274 | 6.0 | 11.0 | 0.00 | 0.00 | 0.00 | 43 | 1007.9 |
| 20260509233502 | 70 | 343 | 6.0 | 9.0 | 0.00 | 0.00 | 0.00 | 44 | 1007.8 |
| 20260509233002 | 70 | 263 | 7.0 | 15.0 | 0.00 | 0.00 | 0.00 | 44 | 1007.8 |
| 20260509232502 | 70 | 277 | 7.0 | 11.0 | 0.00 | 0.00 | 0.00 | 42 | 1007.8 |
| 20260509232002 | 70 | 260 | 7.0 | 15.0 | 0.00 | 0.00 | 0.00 | 43 | 1007.6 |
| 20260509231502 | 69 | 311 | 4.0 | 15.0 | 0.00 | 0.00 | 0.00 | 44 | 1007.5 |
| 20260509231001 | 70 | 288 | 4.0 | 9.0 | 0.00 | 0.00 | 0.00 | 43 | 1007.5 |
| 20260509230003 | 71 | 296 | 6.0 | 14.0 | 0.00 | 0.00 | 0.00 | 40 | 1007.4 |
| 20260509225501 | 72 | 241 | 6.0 | 14.0 | 0.00 | 0.00 | 0.00 | 40 | 1007.5 |
| 20260509224502 | 72 | 328 | 8.0 | 14.0 | 0.00 | 0.00 | 0.00 | 39 | 1007.2 |
| 20260509224002 | 72 | 265 | 7.0 | 14.0 | 0.00 | 0.00 | 0.00 | 39 | 1007.3 |
| 20260509223502 | 71 | 280 | 5.0 | 12.0 | 0.00 | 0.00 | 0.00 | 39 | 1007.2 |
| 20260509223002 | 71 | 259 | 3.0 | 12.0 | 0.00 | 0.00 | 0.00 | 40 | 1007.0 |
| 20260509222001 | 70 | 285 | 6.0 | 12.0 | 0.00 | 0.00 | 0.00 | 41 | 1007.1 |
| 20260509221502 | 70 | 292 | 11.0 | 14.0 | 0.00 | 0.00 | 0.00 | 39 | 1007.0 |
| 20260509221002 | 71 | 321 | 5.0 | 11.0 | 0.00 | 0.00 | 0.00 | 39 | 1006.9 |
| 20260509220502 | 71 | 274 | 4.0 | 16.0 | 0.00 | 0.00 | 0.00 | 39 | 1006.8 |
| 20260509220002 | 71 | 312 | 10.0 | 18.0 | 0.00 | 0.00 | 0.00 | 39 | 1006.5 |
| 20260509215502 | 71 | 316 | 7.0 | 15.0 | 0.00 | 0.00 | 0.00 | 38 | 1006.9 |
| 20260509215002 | 71 | 276 | 8.0 | 15.0 | 0.00 | 0.00 | 0.00 | 38 | 1007.0 |
| 20260509214002 | 71 | 237 | 9.0 | 18.0 | 0.00 | 0.00 | 0.00 | 39 | 1006.7 |
| 20260509213502 | 71 | 310 | 17.0 | 24.0 | 0.00 | 0.00 | 0.00 | 37 | 1006.6 |
| 20260509213002 | 72 | 236 | 9.0 | 15.0 | 0.00 | 0.00 | 0.00 | 38 | 1006.6 |
| 20260509212501 | 71 | 234 | 7.0 | 19.0 | 0.00 | 0.00 | 0.00 | 37 | 1006.5 |
| 20260509212002 | 71 | 284 | 5.0 | 13.0 | 0.00 | 0.00 | 0.00 | 36 | 1006.5 |
| 20260509211502 | 71 | 297 | 3.0 | 14.0 | 0.00 | 0.00 | 0.00 | 36 | 1006.5 |
| 20260509211001 | 71 | 257 | 6.0 | 12.0 | 0.00 | 0.00 | 0.00 | 35 | 1006.4 |
| 20260509210502 | 71 | 313 | 5.0 | 14.0 | 0.00 | 0.00 | 0.00 | 37 | 1006.3 |
| 20260509210002 | 71 | 300 | 6.0 | 14.0 | 0.00 | 0.00 | 0.00 | 37 | 1006.3 |
| 20260509205502 | 72 | 260 | 6.0 | 11.0 | 0.00 | 0.00 | 0.00 | 38 | 1006.2 |
| 20260509205001 | 72 | 268 | 8.0 | 14.0 | 0.00 | 0.00 | 0.00 | 36 | 1006.4 |
| 20260509204002 | 72 | 265 | 7.0 | 13.0 | 0.00 | 0.00 | 0.00 | 39 | 1006.5 |
| 20260509203002 | 72 | 342 | 2.0 | 13.0 | 0.00 | 0.00 | 0.00 | 38 | 1006.4 |
| 20260509202002 | 72 | 239 | 6.0 | 14.0 | 0.00 | 0.00 | 0.00 | 35 | 1006.2 |
| 20260509201001 | 72 | 249 | 6.0 | 12.0 | 0.00 | 0.00 | 0.00 | 35 | 1006.5 |
| 20260509200502 | 72 | 287 | 6.0 | 7.0 | 0.00 | 0.00 | 0.00 | 35 | 1006.5 |
| 20260509200002 | 72 | 260 | 2.0 | 13.0 | 0.00 | 0.00 | 0.00 | 35 | 1006.6 |
| 20260509195502 | 72 | 277 | 5.0 | 16.0 | 0.00 | 0.00 | 0.00 | 32 | 1006.5 |
| 20260509195002 | 73 | 243 | 9.0 | 13.0 | 0.00 | 0.00 | 0.00 | 31 | 1006.4 |
| 20260509194502 | 74 | 272 | 3.0 | 12.0 | 0.00 | 0.00 | 0.00 | 33 | 1006.4 |
| 20260509194002 | 75 | 305 | 7.0 | 14.0 | 0.00 | 0.00 | 0.00 | 33 | 1006.1 |
| 20260509193502 | 74 | 213 | 7.0 | 11.0 | 0.00 | 0.00 | 0.00 | 31 | 1006.3 |
| 20260509193001 | 73 | 245 | 6.0 | 11.0 | 0.00 | 0.00 | 0.00 | 35 | 1006.4 |
| 20260509192502 | 74 | 253 | 6.0 | 13.0 | 0.00 | 0.00 | 0.00 | 33 | 1006.3 |
| 20260509192002 | 74 | 280 | 3.0 | 11.0 | 0.00 | 0.00 | 0.00 | 36 | 1006.2 |
| 20260509191502 | 75 | 288 | 3.0 | 11.0 | 0.00 | 0.00 | 0.00 | 35 | 1006.3 |
| 20260509191002 | 73 | 323 | 5.0 | 6.0 | 0.00 | 0.00 | 0.00 | 40 | 1006.3 |
| 20260509190502 | 73 | 247 | 3.0 | 11.0 | 0.00 | 0.00 | 0.00 | 42 | 1006.3 |
| 20260509190002 | 73 | 255 | 8.0 | 15.0 | 0.00 | 0.00 | 0.00 | 40 | 1006.2 |
| 20260509185503 | 73 | 202 | 4.0 | 11.0 | 0.00 | 0.00 | 0.00 | 41 | 1006.5 |
| 20260509185001 | 74 | 288 | 4.0 | 12.0 | 0.00 | 0.00 | 0.00 | 40 | 1006.5 |
| 20260509184503 | 75 | 242 | 11.0 | 16.0 | 0.00 | 0.00 | 0.00 | 39 | 1006.4 |
| 20260509184002 | 75 | 196 | 6.0 | 19.0 | 0.00 | 0.00 | 0.00 | 41 | 1006.4 |
| 20260509183502 | 74 | 244 | 6.0 | 11.0 | 0.00 | 0.00 | 0.00 | 42 | 1006.3 |
| 20260509183002 | 74 | 190 | 5.0 | 11.0 | 0.00 | 0.00 | 0.00 | 43 | 1006.3 |
| 20260509182501 | 74 | 205 | 5.0 | 10.0 | 0.00 | 0.00 | 0.00 | 44 | 1006.1 |
| 20260509182002 | 74 | 265 | 4.0 | 10.0 | 0.00 | 0.00 | 0.00 | 43 | 1006.4 |
| 20260509181002 | 72 | 285 | 3.0 | 9.0 | 0.00 | 0.00 | 0.00 | 45 | 1006.3 |
| 20260509180502 | 72 | 292 | 4.0 | 7.0 | 0.00 | 0.00 | 0.00 | 48 | 1006.4 |
| 20260509180002 | 71 | 274 | 5.0 | 9.0 | 0.00 | 0.00 | 0.00 | 47 | 1006.6 |
| 20260509175502 | 73 | 231 | 6.0 | 13.0 | 0.00 | 0.00 | 0.00 | 47 | 1006.5 |
| 20260509175002 | 72 | 272 | 7.0 | 13.0 | 0.00 | 0.00 | 0.00 | 45 | 1006.8 |
| 20260509174502 | 72 | 303 | 3.0 | 9.0 | 0.00 | 0.00 | 0.00 | 50 | 1006.5 |
| 20260509174002 | 72 | 276 | 4.0 | 9.0 | 0.00 | 0.00 | 0.00 | 49 | 1006.8 |
| 20260509173502 | 71 | 269 | 5.0 | 9.0 | 0.00 | 0.00 | 0.00 | 51 | 1006.6 |
| 20260509173002 | 71 | 225 | 9.0 | 12.0 | 0.00 | 0.00 | 0.00 | 48 | 1006.5 |
| 20260509172001 | 71 | 253 | 11.0 | 14.0 | 0.00 | 0.00 | 0.00 | 50 | 1006.5 |
| 20260509171502 | 71 | 316 | 5.0 | 7.0 | 0.00 | 0.00 | 0.00 | 52 | 1006.5 |
| 20260509171002 | 70 | 280 | 8.0 | 12.0 | 0.00 | 0.00 | 0.00 | 51 | 1006.6 |
| 20260509170502 | 70 | 332 | 6.0 | 9.0 | 0.00 | 0.00 | 0.00 | 56 | 1006.6 |
| 20260509170002 | 70 | 313 | 5.0 | 7.0 | 0.00 | 0.00 | 0.00 | 54 | 1006.4 |
| 20260509165502 | 70 | 277 | 4.0 | 7.0 | 0.00 | 0.00 | 0.00 | 57 | 1006.6 |
| 20260509165002 | 70 | 280 | 3.0 | 6.0 | 0.00 | 0.00 | 0.00 | 59 | 1006.5 |
| 20260509164001 | 67 | 290 | 2.0 | 4.0 | 0.00 | 0.00 | 0.00 | 69 | 1006.6 |
| 20260509163502 | 68 | 255 | 4.0 | 5.0 | 0.00 | 0.00 | 0.00 | 67 | 1006.5 |
| 20260509163002 | 68 | 189 | 3.0 | 5.0 | 0.00 | 0.00 | 0.00 | 68 | 1006.8 |
| 20260509162502 | 67 | 219 | 4.0 | 10.0 | 0.00 | 0.00 | 0.00 | 68 | 1006.8 |
| 20260509162002 | 68 | 215 | 4.0 | 10.0 | 0.00 | 0.00 | 0.00 | 67 | 1006.8 |
| 20260509161502 | 67 | 259 | 2.0 | 5.0 | 0.00 | 0.00 | 0.00 | 68 | 1006.6 |
| 20260509160502 | 66 | 180 | 3.0 | 7.0 | 0.00 | 0.00 | 0.00 | 72 | 1006.8 |
| 20260509155003 | 66 | 270 | 4.0 | 7.0 | 0.00 | 0.00 | 0.00 | 72 | 1007.1 |
| 20260509154501 | 65 | 259 | 3.0 | 7.0 | 0.00 | 0.00 | 0.00 | 74 | 1007.1 |
| 20260509154002 | 65 | 266 | 5.0 | 6.0 | 0.00 | 0.00 | 0.00 | 75 | 1007.2 |
| 20260509153502 | 65 | 238 | 7.0 | 10.0 | 0.00 | 0.00 | 0.00 | 76 | 1006.8 |
| 20260509153001 | 65 | 251 | 4.0 | 9.0 | 0.00 | 0.00 | 0.00 | 77 | 1007.2 |
| 20260509152502 | 64 | 320 | 3.0 | 5.0 | 0.00 | 0.00 | 0.00 | 77 | 1007.2 |
| 20260509152002 | 63 | 247 | 4.0 | 9.0 | 0.00 | 0.00 | 0.00 | 78 | 1007.1 |
| 20260509151503 | 63 | 261 | 7.0 | 12.0 | 0.00 | 0.00 | 0.00 | 77 | 1007.3 |
| 20260509151003 | 63 | 244 | 5.0 | 9.0 | 0.00 | 0.00 | 0.00 | 78 | 1007.0 |
| 20260509150502 | 63 | 268 | 4.0 | 7.0 | 0.00 | 0.00 | 0.00 | 79 | 1007.0 |
| 20260509150002 | 63 | 211 | 4.0 | 6.0 | 0.00 | 0.00 | 0.00 | 81 | 1007.0 |
| 20260509145502 | 62 | 244 | 3.0 | 6.0 | 0.00 | 0.00 | 0.00 | 83 | 1007.1 |
| 20260509144502 | 61 | 237 | 3.0 | 9.0 | 0.00 | 0.00 | 0.00 | 85 | 1007.0 |
| 20260509143502 | 60 | 239 | 5.0 | 6.0 | 0.00 | 0.00 | 0.00 | 84 | 1006.9 |
| 20260509143002 | 60 | 281 | 2.0 | 9.0 | 0.00 | 0.00 | 0.00 | 86 | 1007.0 |
| 20260509142503 | 59 | 230 | 4.0 | 10.0 | 0.00 | 0.00 | 0.00 | 85 | 1007.0 |
| 20260509142002 | 59 | 238 | 4.0 | 10.0 | 0.00 | 0.00 | 0.00 | 85 | 1007.2 |
| 20260509141502 | 60 | 247 | 3.0 | 6.0 | 0.00 | 0.00 | 0.00 | 85 | 1006.9 |
| 20260509141002 | 59 | 266 | 6.0 | 7.0 | 0.00 | 0.00 | 0.00 | 86 | 1006.9 |
| 20260509140502 | 59 | 254 | 6.0 | 7.0 | 0.00 | 0.00 | 0.00 | 85 | 1006.7 |
| 20260509135502 | 59 | 273 | 2.0 | 6.0 | 0.00 | 0.00 | 0.00 | 88 | 1006.8 |
| 20260509135002 | 58 | 214 | 4.0 | 9.0 | 0.00 | 0.00 | 0.00 | 87 | 1006.8 |
| 20260509134502 | 57 | 213 | 4.0 | 7.0 | 0.00 | 0.00 | 0.00 | 89 | 1007.1 |
| 20260509134002 | 57 | 264 | 2.0 | 7.0 | 0.00 | 0.00 | 0.00 | 92 | 1007.3 |
| 20260509133502 | 56 | 213 | 5.0 | 6.0 | 0.00 | 0.00 | 0.00 | 93 | 1007.0 |
| 20260509133003 | 55 | 254 | 4.0 | 7.0 | 0.00 | 0.00 | 0.00 | 96 | 1007.1 |
| 20260509132501 | 54 | 209 | 2.0 | 4.0 | 0.00 | 0.00 | 0.00 | 99 | 1007.1 |
| 20260509132002 | 53 | 175 | 3.0 | 7.0 | 0.00 | 0.00 | 0.00 | 99 | 1007.1 |
| 20260509131502 | 53 | 273 | 2.0 | 6.0 | 0.00 | 0.00 | 0.00 | 99 | 1007.2 |
| 20260509131002 | 52 | 255 | 4.0 | 9.0 | 0.00 | 0.00 | 0.00 | 99 | 1007.1 |
| 20260509130503 | 53 | 263 | 4.0 | 6.0 | 0.00 | 0.00 | 0.00 | 99 | 1007.0 |
| 20260509130001 | 52 | 244 | 3.0 | 5.0 | 0.00 | 0.00 | 0.00 | 99 | 1007.0 |
| 20260509125502 | 52 | 238 | 4.0 | 5.0 | 0.00 | 0.00 | 0.00 | 99 | 1006.7 |
| 20260509125002 | 51 | 268 | 2.0 | 4.0 | 0.00 | 0.00 | 0.00 | 99 | 1006.9 |
| 20260509124502 | 51 | 222 | 2.0 | 7.0 | 0.00 | 0.00 | 0.00 | 99 | 1007.1 |
| 20260509124002 | 51 | 269 | 1.0 | 3.0 | 0.00 | 0.00 | 0.00 | 99 | 1007.3 |
| 20260509123002 | 50 | 235 | 1.0 | 6.0 | 0.00 | 0.00 | 0.00 | 99 | 1007.0 |
| 20260509122501 | 50 | 214 | 4.0 | 6.0 | 0.00 | 0.00 | 0.00 | 99 | 1007.2 |
| 20260509122002 | 50 | 255 | 1.0 | 5.0 | 0.00 | 0.00 | 0.00 | 99 | 1007.2 |
| 20260509121502 | 50 | 286 | 1.0 | 3.0 | 0.00 | 0.00 | 0.00 | 99 | 1007.2 |
| 20260509121002 | 50 | 267 | 4.0 | 4.0 | 0.00 | 0.00 | 0.00 | 99 | 1007.2 |
| 20260509120502 | 50 | 298 | 3.0 | 6.0 | 0.00 | 0.00 | 0.00 | 99 | 1007.3 |
| 20260509120001 | 50 | 293 | 4.0 | 5.0 | 0.00 | 0.00 | 0.00 | 99 | 1007.0 |
| 20260509115002 | 50 | 280 | 0.0 | 4.0 | 0.00 | 0.00 | 0.00 | 99 | 1006.3 |
| 20260509114503 | 50 | 229 | 4.0 | 4.0 | 0.00 | 0.00 | 0.00 | 99 | 1006.4 |
| 20260509114002 | 50 | 222 | 2.0 | 6.0 | 0.00 | 0.00 | 0.00 | 99 | 1006.1 |
| 20260509113501 | 50 | 241 | 2.0 | 5.0 | 0.00 | 0.00 | 0.00 | 99 | 1006.1 |
| 20260509113003 | 50 | 178 | 6.0 | 9.0 | 0.00 | 0.00 | 0.00 | 99 | 1006.2 |
| 20260509112503 | 50 | 212 | 2.0 | 6.0 | 0.00 | 0.00 | 0.00 | 99 | 1006.2 |
| 20260509112002 | 50 | 233 | 3.0 | 4.0 | 0.00 | 0.00 | 0.00 | 99 | 1006.1 |
| 20260509111502 | 50 | 213 | 4.0 | 6.0 | 0.00 | 0.00 | 0.00 | 99 | 1006.3 |
| 20260509110502 | 50 | 248 | 4.0 | 5.0 | 0.00 | 0.00 | 0.00 | 99 | 1006.2 |
| 20260509110002 | 50 | 232 | 3.0 | 5.0 | 0.00 | 0.00 | 0.00 | 99 | 1006.5 |
| 20260509105501 | 50 | 233 | 2.0 | 5.0 | 0.00 | 0.00 | 0.00 | 99 | 1006.4 |
| 20260509105002 | 50 | 274 | 2.0 | 3.0 | 0.00 | 0.00 | 0.00 | 99 | 1006.5 |
| 20260509104502 | 50 | 270 | 2.0 | 3.0 | 0.00 | 0.00 | 0.00 | 99 | 1006.4 |
| 20260509104003 | 49 | 261 | 2.0 | 5.0 | 0.00 | 0.00 | 0.00 | 99 | 1006.3 |
| 20260509103501 | 49 | 261 | 2.0 | 5.0 | 0.00 | 0.00 | 0.00 | 99 | 1006.2 |
| 20260509103002 | 49 | 223 | 3.0 | 5.0 | 0.00 | 0.00 | 0.00 | 99 | 1006.6 |
| 20260509102502 | 49 | 271 | 2.0 | 4.0 | 0.00 | 0.00 | 0.00 | 99 | 1006.6 |
| 20260509102002 | 49 | 236 | 2.0 | 4.0 | 0.00 | 0.00 | 0.00 | 99 | 1006.4 |
| 20260509101502 | 49 | 252 | 0.0 | 4.0 | 0.00 | 0.00 | 0.00 | 99 | 1006.6 |
| 20260509101002 | 49 | 180 | 3.0 | 7.0 | 0.00 | 0.00 | 0.00 | 99 | 1006.7 |
| 20260509100502 | 49 | 275 | 1.0 | 4.0 | 0.00 | 0.00 | 0.00 | 99 | 1006.5 |
| 20260509100001 | 49 | 223 | 1.0 | 5.0 | 0.00 | 0.00 | 0.00 | 99 | 1006.5 |
| 20260509095502 | 48 | 194 | 3.0 | 5.0 | 0.00 | 0.00 | 0.00 | 99 | 1006.9 |
| 20260509095002 | 48 | 193 | 4.0 | 5.0 | 0.00 | 0.00 | 0.00 | 99 | 1006.8 |
| 20260509094003 | 48 | 261 | 3.0 | 5.0 | 0.00 | 0.00 | 0.00 | 99 | 1006.8 |
| 20260509093502 | 48 | 212 | 4.0 | 5.0 | 0.00 | 0.00 | 0.00 | 99 | 1006.9 |
| 20260509093002 | 48 | 235 | 1.0 | 5.0 | 0.00 | 0.00 | 0.00 | 99 | 1007.1 |
| 20260509092502 | 49 | 215 | 3.0 | 5.0 | 0.00 | 0.00 | 0.00 | 99 | 1007.0 |
| 20260509092002 | 49 | 240 | 2.0 | 4.0 | 0.00 | 0.00 | 0.00 | 99 | 1007.1 |
| 20260509091502 | 49 | 204 | 1.0 | 3.0 | 0.00 | 0.00 | 0.00 | 99 | 1006.9 |
| 20260509091002 | 49 | 204 | 2.0 | 4.0 | 0.00 | 0.00 | 0.00 | 99 | 1007.1 |
| 20260509090002 | 49 | 211 | 1.0 | 2.0 | 0.00 | 0.00 | 0.00 | 99 | 1007.0 |
| 20260509085502 | 49 | 268 | 0.0 | 2.0 | 0.00 | 0.00 | 0.00 | 99 | 1007.0 |
| 20260509085002 | 49 | 259 | 1.0 | 3.0 | 0.00 | 0.00 | 0.00 | 99 | 1007.2 |
| 20260509084502 | 49 | 270 | 1.0 | 3.0 | 0.00 | 0.00 | 0.00 | 99 | 1007.1 |
| 20260509084002 | 49 | 277 | 0.0 | 2.0 | 0.00 | 0.00 | 0.00 | 99 | 1006.8 |
| 20260509083502 | 49 | 269 | 0.0 | 2.0 | 0.00 | 0.00 | 0.00 | 99 | 1006.7 |
| 20260509083002 | 49 | 276 | 1.0 | 3.0 | 0.00 | 0.00 | 0.00 | 99 | 1007.1 |
| 20260509082502 | 49 | 251 | 1.0 | 2.0 | 0.00 | 0.00 | 0.00 | 99 | 1007.0 |
| 20260509082002 | 49 | 207 | 2.0 | 3.0 | 0.00 | 0.00 | 0.00 | 99 | 1006.8 |
| 20260509081502 | 49 | 205 | 1.0 | 2.0 | 0.00 | 0.00 | 0.00 | 99 | 1006.8 |
| 20260509080002 | 49 | 274 | 0.0 | 3.0 | 0.00 | 0.00 | 0.00 | 99 | 1007.0 |
| 20260509075502 | 49 | 259 | 1.0 | 2.0 | 0.00 | 0.00 | 0.00 | 99 | 1006.8 |
| 20260509075001 | 49 | 266 | 0.0 | 3.0 | 0.00 | 0.00 | 0.00 | 99 | 1006.8 |
| 20260509074002 | 49 | 219 | 1.0 | 2.0 | 0.00 | 0.00 | 0.00 | 99 | 1006.8 |
| 20260509073002 | 49 | 272 | 0.0 | 0.0 | 0.00 | 0.00 | 0.00 | 99 | 1007.2 |
| 20260509072502 | 49 | 279 | 0.0 | 2.0 | 0.00 | 0.00 | 0.00 | 99 | 1007.2 |
| 20260509072002 | 49 | 278 | 0.0 | 0.0 | 0.00 | 0.00 | 0.00 | 99 | 1007.3 |
| 20260509071502 | 49 | 269 | 0.0 | 0.0 | 0.00 | 0.00 | 0.00 | 99 | 1007.3 |
| 20260509071002 | 50 | 279 | 0.0 | 0.0 | 0.00 | 0.00 | 0.00 | 99 | 1007.3 |
| 20260509070502 | 50 | 277 | 0.0 | 0.0 | 0.00 | 0.00 | 0.00 | 99 | 1007.3 |
| 20260509070002 | 50 | 279 | 0.0 | 0.0 | 0.00 | 0.00 | 0.00 | 99 | 1007.3 |
| 20260509065502 | 50 | 278 | 1.0 | 3.0 | 0.00 | 0.00 | 0.00 | 99 | 1007.5 |
| 20260509065002 | 50 | 279 | 0.0 | 2.0 | 0.00 | 0.00 | 0.00 | 99 | 1007.4 |
| 20260509064501 | 50 | 278 | 0.0 | 2.0 | 0.00 | 0.00 | 0.00 | 99 | 1007.7 |
| 20260509064002 | 50 | 279 | 0.0 | 2.0 | 0.00 | 0.00 | 0.00 | 99 | 1007.3 |
| 20260509063502 | 50 | 277 | 0.0 | 0.0 | 0.00 | 0.00 | 0.00 | 99 | 1007.6 |
| 20260509063002 | 50 | 270 | 0.0 | 2.0 | 0.00 | 0.00 | 0.00 | 99 | 1007.6 |
| 20260509062502 | 51 | 269 | 1.0 | 2.0 | 0.00 | 0.00 | 0.00 | 99 | 1007.5 |
| 20260509062002 | 51 | 270 | 1.0 | 3.0 | 0.00 | 0.00 | 0.00 | 99 | 1007.7 |
| 20260509061502 | 51 | 274 | 0.0 | 3.0 | 0.00 | 0.00 | 0.00 | 98 | 1007.7 |
| 20260509061002 | 51 | 280 | 0.0 | 2.0 | 0.00 | 0.00 | 0.00 | 98 | 1008.0 |
| 20260509060502 | 51 | 274 | 2.0 | 3.0 | 0.00 | 0.00 | 0.00 | 98 | 1007.8 |
| 20260509060002 | 51 | 269 | 0.0 | 2.0 | 0.00 | 0.00 | 0.00 | 98 | 1007.9 |
| 20260509055502 | 51 | 224 | 2.0 | 3.0 | 0.00 | 0.00 | 0.00 | 98 | 1008.2 |
| 20260509055002 | 51 | 267 | 1.0 | 5.0 | 0.00 | 0.00 | 0.00 | 98 | 1007.9 |
| 20260509054502 | 52 | 278 | 1.0 | 2.0 | 0.00 | 0.00 | 0.00 | 98 | 1008.2 |
| 20260509054002 | 52 | 270 | 2.0 | 3.0 | 0.00 | 0.00 | 0.00 | 98 | 1007.8 |
| 20260509053502 | 52 | 274 | 1.0 | 5.0 | 0.00 | 0.00 | 0.00 | 98 | 1007.8 |
| 20260509053002 | 52 | 266 | 2.0 | 3.0 | 0.00 | 0.00 | 0.00 | 98 | 1008.1 |
| 20260509052502 | 52 | 270 | 1.0 | 3.0 | 0.00 | 0.00 | 0.00 | 98 | 1008.1 |
| 20260509052002 | 52 | 277 | 1.0 | 2.0 | 0.00 | 0.00 | 0.00 | 97 | 1008.1 |
| 20260509051502 | 52 | 242 | 2.0 | 3.0 | 0.00 | 0.00 | 0.00 | 97 | 1008.1 |
| 20260509051001 | 52 | 269 | 2.0 | 3.0 | 0.00 | 0.00 | 0.00 | 97 | 1007.8 |
| 20260509050502 | 52 | 277 | 1.0 | 3.0 | 0.00 | 0.00 | 0.00 | 97 | 1008.2 |
| 20260509050002 | 53 | 242 | 2.0 | 3.0 | 0.00 | 0.00 | 0.01 | 96 | 1008.0 |
| 20260509045502 | 53 | 246 | 2.0 | 3.0 | 0.00 | 0.00 | 0.01 | 96 | 1008.1 |
| 20260509044502 | 53 | 277 | 2.0 | 3.0 | 0.00 | 0.00 | 0.01 | 95 | 1008.0 |
| 20260509044002 | 53 | 253 | 1.0 | 4.0 | 0.00 | 0.00 | 0.01 | 95 | 1008.2 |
| 20260509043502 | 53 | 277 | 3.0 | 5.0 | 0.00 | 0.00 | 0.01 | 95 | 1008.2 |
| 20260509042502 | 54 | 242 | 2.0 | 4.0 | 0.00 | 0.00 | 0.01 | 94 | 1008.1 |
| 20260509041502 | 54 | 284 | 3.0 | 5.0 | 0.00 | 0.00 | 0.01 | 93 | 1008.3 |
| 20260509041002 | 54 | 268 | 2.0 | 3.0 | 0.00 | 0.00 | 0.01 | 93 | 1008.3 |
| 20260509040502 | 54 | 231 | 2.0 | 3.0 | 0.00 | 0.00 | 0.01 | 93 | 1008.3 |
| 20260509040002 | 54 | 277 | 1.0 | 4.0 | 0.00 | 0.00 | 0.01 | 93 | 1008.5 |
| 20260509035502 | 54 | 263 | 2.0 | 3.0 | 0.00 | 0.00 | 0.01 | 92 | 1008.6 |
| 20260509034502 | 55 | 250 | 3.0 | 4.0 | 0.00 | 0.00 | 0.01 | 92 | 1008.3 |
| 20260509034001 | 55 | 256 | 2.0 | 4.0 | 0.00 | 0.00 | 0.01 | 91 | 1008.4 |
| 20260509033503 | 55 | 204 | 2.0 | 4.0 | 0.00 | 0.00 | 0.01 | 91 | 1008.4 |
| 20260509033002 | 55 | 203 | 3.0 | 4.0 | 0.00 | 0.00 | 0.01 | 90 | 1008.5 |
| 20260509032502 | 55 | 275 | 3.0 | 5.0 | 0.00 | 0.00 | 0.01 | 89 | 1008.3 |
| 20260509032002 | 55 | 246 | 4.0 | 6.0 | 0.00 | 0.00 | 0.01 | 88 | 1008.3 |
| 20260509031502 | 55 | 279 | 1.0 | 2.0 | 0.00 | 0.00 | 0.01 | 87 | 1008.5 |
| 20260509031002 | 55 | 263 | 2.0 | 3.0 | 0.00 | 0.00 | 0.01 | 86 | 1008.5 |
| 20260509030502 | 55 | 225 | 3.0 | 4.0 | 0.00 | 0.00 | 0.01 | 85 | 1008.4 |
| 20260509030002 | 55 | 203 | 2.0 | 4.0 | 0.00 | 0.00 | 0.01 | 85 | 1008.4 |
| 20260509025002 | 56 | 268 | 3.0 | 4.0 | 0.00 | 0.00 | 0.01 | 84 | 1008.7 |
| 20260509024502 | 56 | 267 | 2.0 | 4.0 | 0.00 | 0.00 | 0.01 | 83 | 1008.6 |
| 20260509024002 | 56 | 223 | 3.0 | 4.0 | 0.00 | 0.00 | 0.01 | 82 | 1008.7 |
| 20260509023502 | 56 | 213 | 2.0 | 4.0 | 0.00 | 0.00 | 0.01 | 82 | 1008.9 |
| 20260509023002 | 56 | 276 | 2.0 | 4.0 | 0.00 | 0.00 | 0.01 | 82 | 1008.6 |
| 20260509022502 | 57 | 244 | 3.0 | 4.0 | 0.00 | 0.00 | 0.01 | 82 | 1008.7 |
| 20260509022001 | 57 | 234 | 3.0 | 4.0 | 0.00 | 0.00 | 0.01 | 81 | 1008.6 |
| 20260509021502 | 57 | 252 | 2.0 | 3.0 | 0.00 | 0.00 | 0.01 | 81 | 1008.5 |
| 20260509021002 | 57 | 278 | 1.0 | 3.0 | 0.00 | 0.00 | 0.01 | 81 | 1008.5 |
| 20260509020502 | 57 | 279 | 1.0 | 5.0 | 0.00 | 0.00 | 0.01 | 81 | 1008.6 |
| 20260509020001 | 58 | 273 | 2.0 | 4.0 | 0.00 | 0.00 | 0.01 | 81 | 1008.4 |
| 20260509015502 | 58 | 267 | 2.0 | 4.0 | 0.00 | 0.00 | 0.01 | 81 | 1008.2 |